����,���ϕ���(m/s),���ϕ���,�ő�u�ԕ���(m/s),�ő啗��������,�C��(��),���x(%),10���Ԉړ��ώZ�J��(mm),1���Ԉړ��ώZ�J��(mm),���J��(mm),�݌v�J��(mm)
2022-12-12T00:00:00+09:00,2.3,�k��,5.2,�k�k��,7.3,65.7,0,0,0,0
2022-12-12T00:01:00+09:00,2.1,�k��,5.1,�k��,7.2,66,0,0,0,0
2022-12-12T00:02:00+09:00,2.3,�k�k��,5.1,�k��,7.3,66.2,0,0,0,0
2022-12-12T00:03:00+09:00,2.4,�k�k��,5.2,�k,7.3,66,0,0,0,0
2022-12-12T00:04:00+09:00,2.4,�k�k��,5.2,�k,7.2,65.8,0,0,0,0
2022-12-12T00:05:00+09:00,2.2,�k��,5.2,�k,7.2,66.1,0,0,0,0
2022-12-12T00:06:00+09:00,2,�k��,5.2,�k,7.2,66.2,0,0,0,0
2022-12-12T00:07:00+09:00,2.2,�k��,7.6,�k�k��,7.2,66.3,0,0,0,0
2022-12-12T00:08:00+09:00,2.4,�k�k��,7.7,�k�k��,7.3,66.7,0,0,0,0
2022-12-12T00:09:00+09:00,2.4,�k�k��,7.7,�k�k��,7.3,66.3,0,0,0,0
2022-12-12T00:10:00+09:00,2.3,�k�k��,7.7,�k�k��,7.3,66.1,0,0,0,0
2022-12-12T00:11:00+09:00,2.4,�k�k��,7.7,�k�k��,7.4,65.7,0,0,0,0
2022-12-12T00:12:00+09:00,2.5,�k�k��,7.7,�k�k��,7.4,65.7,0,0,0,0
2022-12-12T00:13:00+09:00,2.3,�k��,7.7,�k�k��,7.3,65.3,0,0,0,0
2022-12-12T00:14:00+09:00,2.2,�k�k��,7.7,�k�k��,7.3,65.5,0,0,0,0
2022-12-12T00:15:00+09:00,2.2,�k�k��,7.7,�k�k��,7.4,65.5,0,0,0,0
2022-12-12T00:16:00+09:00,2.3,�k�k��,7.7,�k�k��,7.3,65.1,0,0,0,0
2022-12-12T00:17:00+09:00,2.1,�k�k��,7.7,�k�k��,7.2,64.9,0,0,0,0
2022-12-12T00:18:00+09:00,2.2,�k�k��,7.3,�k,7.1,65.2,0,0,0,0
2022-12-12T00:19:00+09:00,2.4,�k�k��,7.5,�k,7.2,65.9,0,0,0,0
2022-12-12T00:20:00+09:00,2.5,�k�k��,7.5,�k,7.3,65.8,0,0,0,0
2022-12-12T00:21:00+09:00,2.5,�k�k��,7.5,�k,7.2,65.4,0,0,0,0
2022-12-12T00:22:00+09:00,2.7,�k��,7.6,�k��,7.2,65.5,0,0,0,0
2022-12-12T00:23:00+09:00,2.8,�k�k��,7.6,�k��,7.3,65.6,0,0,0,0
2022-12-12T00:24:00+09:00,2.8,�k��,7.6,�k��,7.2,65.2,0,0,0,0
2022-12-12T00:25:00+09:00,2.9,�k��,7.6,�k��,7.2,65.4,0,0,0,0
2022-12-12T00:26:00+09:00,2.9,�k��,7.6,�k��,7.1,65.6,0,0,0,0
2022-12-12T00:27:00+09:00,2.9,�k��,7.6,�k��,7.1,66.1,0,0,0,0
2022-12-12T00:28:00+09:00,3,�k��,8,�k��,7.1,66.2,0,0,0,0
2022-12-12T00:29:00+09:00,2.9,�k��,8,�k��,7.1,66.2,0,0,0,0
2022-12-12T00:30:00+09:00,2.9,�k��,8,�k��,7,66.1,0,0,0,0
2022-12-12T00:31:00+09:00,2.8,�k��,8,�k��,7,66.3,0,0,0,0
2022-12-12T00:32:00+09:00,2.5,�k��,8,�k��,7.1,67,0,0,0,0
2022-12-12T00:33:00+09:00,2.4,���k��,8,�k��,7.1,66.7,0,0,0,0
2022-12-12T00:34:00+09:00,2.4,���k��,8,�k��,7.1,66.5,0,0,0,0
2022-12-12T00:35:00+09:00,2.5,���k��,8,�k��,7,66.2,0,0,0,0
2022-12-12T00:36:00+09:00,2.5,���k��,8,�k��,6.9,66.3,0,0,0,0
2022-12-12T00:37:00+09:00,2.5,���k��,8,�k��,6.9,66.9,0,0,0,0
2022-12-12T00:38:00+09:00,2.1,���k��,6.3,�k�k��,7,67.4,0,0,0,0
2022-12-12T00:39:00+09:00,2.1,��,4.6,���k��,7,67.1,0,0,0,0
2022-12-12T00:40:00+09:00,2.1,��,4.6,���k��,7,67,0,0,0,0
2022-12-12T00:41:00+09:00,2,���k��,4.3,���k��,7,67,0,0,0,0
2022-12-12T00:42:00+09:00,2,���k��,4.3,���k��,7,66.8,0,0,0,0
2022-12-12T00:43:00+09:00,2,���k��,4.3,���k��,6.9,66.4,0,0,0,0
2022-12-12T00:44:00+09:00,2.2,���k��,5.5,���k��,6.9,66.8,0,0,0,0
2022-12-12T00:45:00+09:00,2.2,���k��,5.5,���k��,7,66.9,0,0,0,0
2022-12-12T00:46:00+09:00,2.3,���k��,5.5,���k��,7,66.8,0,0,0,0
2022-12-12T00:47:00+09:00,2.4,���k��,5.5,���k��,7,66.8,0,0,0,0
2022-12-12T00:48:00+09:00,2.5,���k��,5.5,���k��,7,66.7,0,0,0,0
2022-12-12T00:49:00+09:00,2.7,���k��,6.1,���k��,7,66.7,0,0,0,0
2022-12-12T00:50:00+09:00,2.7,���k��,6.1,���k��,7.1,66.6,0,0,0,0
2022-12-12T00:51:00+09:00,2.7,���k��,6.1,���k��,7.1,66.3,0,0,0,0
2022-12-12T00:52:00+09:00,2.7,���k��,6.1,���k��,7.1,66.4,0,0,0,0
2022-12-12T00:53:00+09:00,2.7,���k��,6.1,���k��,7,66,0,0,0,0
2022-12-12T00:54:00+09:00,2.6,���k��,6.1,���k��,6.9,66,0,0,0,0
2022-12-12T00:55:00+09:00,2.5,���k��,6.1,���k��,6.9,66.4,0,0,0,0
2022-12-12T00:56:00+09:00,2.4,���k��,6.1,���k��,6.9,66.9,0,0,0,0
2022-12-12T00:57:00+09:00,2.3,���k��,6.1,���k��,6.9,67,0,0,0,0
2022-12-12T00:58:00+09:00,2.1,���k��,6.1,���k��,6.9,67.1,0,0,0,0
2022-12-12T00:59:00+09:00,1.8,���k��,4.7,���쓌,6.9,67.1,0,0,0,0
2022-12-12T01:00:00+09:00,1.6,��,4.7,���쓌,7,67.3,0,0,0,0
2022-12-12T01:01:00+09:00,1.5,��,4.7,���쓌,7,67.2,0,0,0,0
2022-12-12T01:02:00+09:00,1.5,��,3.8,���k��,7.1,66.9,0,0,0,0
2022-12-12T01:03:00+09:00,1.4,��,3.8,���k��,7,66.3,0,0,0,0
2022-12-12T01:04:00+09:00,1.4,��,3.8,���k��,6.9,65.9,0,0,0,0
2022-12-12T01:05:00+09:00,1.4,���쓌,2.8,���k��,6.7,66.1,0,0,0,0
2022-12-12T01:06:00+09:00,1.4,���쓌,2.8,���k��,6.6,66.8,0,0,0,0
2022-12-12T01:07:00+09:00,1.4,���쓌,2.8,���k��,6.7,67.8,0,0,0,0
2022-12-12T01:08:00+09:00,1.3,��,2.8,���k��,6.7,68,0,0,0,0
2022-12-12T01:09:00+09:00,1.4,��,2.8,���k��,6.9,68.3,0,0,0,0
2022-12-12T01:10:00+09:00,1.4,��,2.7,���쓌,7,68,0,0,0,0
2022-12-12T01:11:00+09:00,1.3,���k��,2.7,���쓌,7.1,67.3,0,0,0,0
2022-12-12T01:12:00+09:00,1.2,�k��,2.7,���쓌,7.1,66.6,0,0,0,0
2022-12-12T01:13:00+09:00,1.2,�k��,2.7,���쓌,6.9,65.9,0,0,0,0
2022-12-12T01:14:00+09:00,1.2,�k��,2.7,���쓌,6.5,66,0,0,0,0
2022-12-12T01:15:00+09:00,1.2,�k��,2.7,���쓌,6.3,67.3,0,0,0,0
2022-12-12T01:16:00+09:00,1.1,�k��,2.6,�k�k��,6.1,68.8,0,0,0,0
2022-12-12T01:17:00+09:00,1,�쓌,2.6,�k�k��,6,69.9,0,0,0,0
2022-12-12T01:18:00+09:00,1.1,�쓌,2.6,�k�k��,6.3,71.5,0,0,0,0
2022-12-12T01:19:00+09:00,1,�쓌,2.3,���k��,6.5,72.1,0,0,0,0
2022-12-12T01:20:00+09:00,1,���쓌,2.3,�k�k��,6.7,71,0,0,0,0
2022-12-12T01:21:00+09:00,1.1,��,2.5,�k�k��,6.8,70.1,0,0,0,0
2022-12-12T01:22:00+09:00,1.1,��,2.5,�k�k��,6.9,68.9,0,0,0,0
2022-12-12T01:23:00+09:00,1.2,���쓌,2.9,��쓌,6.5,67.3,0,0,0,0
2022-12-12T01:24:00+09:00,1.2,���쓌,2.9,��쓌,6.2,67.5,0,0,0,0
2022-12-12T01:25:00+09:00,1.3,��,2.9,��쓌,6.3,69.7,0,0,0,0
2022-12-12T01:26:00+09:00,1.3,��,2.9,��쓌,6.4,70.4,0,0,0,0
2022-12-12T01:27:00+09:00,1.3,���k��,2.9,��쓌,6.5,70.4,0,0,0,0
2022-12-12T01:28:00+09:00,1.3,���k��,2.9,��쓌,6.5,69.9,0,0,0,0
2022-12-12T01:29:00+09:00,1.3,���k��,2.9,��쓌,6.6,69.8,0,0,0,0
2022-12-12T01:30:00+09:00,1.4,��,2.9,��쓌,6.6,69,0,0,0,0
2022-12-12T01:31:00+09:00,1.4,��,2.9,��쓌,6.6,68.6,0,0,0,0
2022-12-12T01:32:00+09:00,1.5,���쓌,3.5,���쓌,6.5,68.5,0,0,0,0
2022-12-12T01:33:00+09:00,1.6,��,4.1,���쓌,6.6,68.9,0,0,0,0
2022-12-12T01:34:00+09:00,1.8,��,4.6,�k��,6.6,68.6,0,0,0,0
2022-12-12T01:35:00+09:00,1.8,��,4.6,�k��,6.7,68.4,0,0,0,0
2022-12-12T01:36:00+09:00,1.9,���k��,4.6,�k��,6.7,68,0,0,0,0
2022-12-12T01:37:00+09:00,2,���k��,4.6,�k��,6.6,67.7,0,0,0,0
2022-12-12T01:38:00+09:00,2,���k��,4.6,�k��,6.6,67.6,0,0,0,0
2022-12-12T01:39:00+09:00,2.1,���k��,4.6,�k��,6.6,67.6,0,0,0,0
2022-12-12T01:40:00+09:00,2.1,���k��,4.6,�k��,6.7,67.7,0,0,0,0
2022-12-12T01:41:00+09:00,2.1,���k��,4.6,�k��,6.7,67.6,0,0,0,0
2022-12-12T01:42:00+09:00,2.2,���k��,4.6,�k��,6.7,67.4,0,0,0,0
2022-12-12T01:43:00+09:00,2.2,���k��,4.6,�k��,6.7,67.4,0,0,0,0
2022-12-12T01:44:00+09:00,2,���k��,3.9,���k��,6.5,66.9,0,0,0,0
2022-12-12T01:45:00+09:00,2,���k��,3.9,���k��,6.6,67.6,0,0,0,0
2022-12-12T01:46:00+09:00,2,���k��,3.9,���k��,6.7,67.8,0,0,0,0
2022-12-12T01:47:00+09:00,1.9,���k��,3.9,���k��,6.7,67.3,0,0,0,0
2022-12-12T01:48:00+09:00,2,���k��,3.9,���k��,6.7,67.1,0,0,0,0
2022-12-12T01:49:00+09:00,2,�k��,3.9,���k��,6.7,66.7,0,0,0,0
2022-12-12T01:50:00+09:00,2,�k��,3.9,���k��,6.6,66.6,0,0,0,0
2022-12-12T01:51:00+09:00,1.9,�k��,3.9,���k��,6.5,66.7,0,0,0,0
2022-12-12T01:52:00+09:00,1.7,�k��,3.4,�k�k��,6.5,67,0,0,0,0
2022-12-12T01:53:00+09:00,1.7,�k��,3.4,�k�k��,6.5,67.6,0,0,0,0
2022-12-12T01:54:00+09:00,1.6,�k��,3.4,�k�k��,6.4,67.7,0,0,0,0
2022-12-12T01:55:00+09:00,1.5,�k��,3.4,�k�k��,6.4,67.8,0,0,0,0
2022-12-12T01:56:00+09:00,1.4,�k��,3.4,�k�k��,6.3,68,0,0,0,0
2022-12-12T01:57:00+09:00,1.3,�k��,3.4,�k�k��,6.2,68.1,0,0,0,0
2022-12-12T01:58:00+09:00,1.2,�k��,2.2,�k,6.1,68.6,0,0,0,0
2022-12-12T01:59:00+09:00,1.3,���k��,3.4,���k��,6.2,69.5,0,0,0,0
2022-12-12T02:00:00+09:00,1.3,���k��,3.4,���k��,6.3,69.6,0,0,0,0
2022-12-12T02:01:00+09:00,1.4,���k��,3.4,���k��,6.3,69.6,0,0,0,0
2022-12-12T02:02:00+09:00,1.5,���k��,3.4,���k��,6.5,69.6,0,0,0,0
2022-12-12T02:03:00+09:00,1.4,���k��,3.4,���k��,6.5,69,0,0,0,0
2022-12-12T02:04:00+09:00,1.5,���k��,3.4,���k��,6.5,68.2,0,0,0,0
2022-12-12T02:05:00+09:00,1.6,���k��,3.4,���k��,6.4,68,0,0,0,0
2022-12-12T02:06:00+09:00,1.7,���k��,3.4,���k��,6.3,68,0,0,0,0
2022-12-12T02:07:00+09:00,1.7,���k��,3.4,���k��,6.4,68.3,0,0,0,0
2022-12-12T02:08:00+09:00,1.8,���k��,3.4,���k��,6.3,68.1,0,0,0,0
2022-12-12T02:09:00+09:00,1.8,���k��,3.8,�k�k��,6.4,68.1,0,0,0,0
2022-12-12T02:10:00+09:00,1.9,���k��,4,�k��,6.4,68.2,0,0,0,0
2022-12-12T02:11:00+09:00,2,���k��,4.1,�k��,6.4,68.2,0,0,0,0
2022-12-12T02:12:00+09:00,1.9,���k��,4.1,�k��,6.4,68.1,0,0,0,0
2022-12-12T02:13:00+09:00,2.1,���k��,4.1,�k��,6.3,67.6,0,0,0,0
2022-12-12T02:14:00+09:00,2.2,���k��,4.1,�k��,6.4,68.2,0,0,0,0
2022-12-12T02:15:00+09:00,2.2,���k��,4.1,�k��,6.4,68,0,0,0,0
2022-12-12T02:16:00+09:00,2.3,���k��,4.1,�k��,6.3,67.9,0,0,0,0
2022-12-12T02:17:00+09:00,2.4,�k��,5.3,�k��,6.3,67.8,0,0,0,0
2022-12-12T02:18:00+09:00,2.5,�k��,5.3,�k��,6.4,68.4,0,0,0,0
2022-12-12T02:19:00+09:00,2.5,�k��,5.3,�k��,6.3,68,0,0,0,0
2022-12-12T02:20:00+09:00,2.3,�k��,5.3,�k��,6.1,67.7,0,0,0,0
2022-12-12T02:21:00+09:00,2.2,���k��,5.3,�k��,6.1,68.6,0,0,0,0
2022-12-12T02:22:00+09:00,2.2,���k��,5.3,�k��,6.1,69.1,0,0,0,0
2022-12-12T02:23:00+09:00,2.2,���k��,5.3,�k��,6.2,69.9,0,0,0,0
2022-12-12T02:24:00+09:00,2.2,���k��,5.3,�k��,6.2,69.3,0,0,0,0
2022-12-12T02:25:00+09:00,2.2,���k��,5.3,�k��,6.2,68.7,0,0,0,0
2022-12-12T02:26:00+09:00,2.3,���k��,5.3,�k��,6.1,68.8,0,0,0,0
2022-12-12T02:27:00+09:00,2.1,���k��,3.9,���k��,6.1,69.1,0,0,0,0
2022-12-12T02:28:00+09:00,2,��,3.9,���k��,6.2,69.4,0,0,0,0
2022-12-12T02:29:00+09:00,1.9,���k��,3.9,���k��,6.2,69.6,0,0,0,0
2022-12-12T02:30:00+09:00,2,��,3.9,���k��,6.2,68.9,0,0,0,0
2022-12-12T02:31:00+09:00,2.1,��,3.9,���k��,6,68.5,0,0,0,0
2022-12-12T02:32:00+09:00,2.1,��,3.7,��,6,68.9,0,0,0,0
2022-12-12T02:33:00+09:00,2.1,��,3.7,��,6,69.5,0,0,0,0
2022-12-12T02:34:00+09:00,2.1,��,3.7,��,6,69.4,0,0,0,0
2022-12-12T02:35:00+09:00,1.9,��,3.7,��,5.9,69.2,0,0,0,0
2022-12-12T02:36:00+09:00,2,��,6.1,���k��,5.9,69.6,0,0,0,0
2022-12-12T02:37:00+09:00,2.2,��,6.1,���k��,6.1,70.6,0,0,0,0
2022-12-12T02:38:00+09:00,2.3,���k��,6.1,���k��,6.3,70.2,0,0,0,0
2022-12-12T02:39:00+09:00,2.3,��,6.1,���k��,6.3,68.7,0,0,0,0
2022-12-12T02:40:00+09:00,2.3,���k��,6.1,���k��,6.2,67.7,0,0,0,0
2022-12-12T02:41:00+09:00,2.2,���k��,6.1,���k��,6,67.8,0,0,0,0
2022-12-12T02:42:00+09:00,2,���k��,6.1,���k��,6,68.3,0,0,0,0
2022-12-12T02:43:00+09:00,1.9,���k��,6.1,���k��,6,68.8,0,0,0,0
2022-12-12T02:44:00+09:00,1.9,���k��,6.1,���k��,6,69,0,0,0,0
2022-12-12T02:45:00+09:00,2,���k��,6.1,���k��,6,69.3,0,0,0,0
2022-12-12T02:46:00+09:00,1.8,���k��,5.7,���k��,6.2,69.2,0,0,0,0
2022-12-12T02:47:00+09:00,1.4,���k��,4.7,�k��,6.3,69.1,0,0,0,0
2022-12-12T02:48:00+09:00,1.3,��,3,�쓌,6.2,68.1,0,0,0,0
2022-12-12T02:49:00+09:00,1.3,��,3,�쓌,6,68,0,0,0,0
2022-12-12T02:50:00+09:00,1.2,���쓌,3,�쓌,5.9,68.7,0,0,0,0
2022-12-12T02:51:00+09:00,1.2,���쓌,3,�쓌,5.9,69.5,0,0,0,0
2022-12-12T02:52:00+09:00,1.1,���쓌,3,�쓌,5.8,70.1,0,0,0,0
2022-12-12T02:53:00+09:00,1.1,���쓌,3,�쓌,5.7,70,0,0,0,0
2022-12-12T02:54:00+09:00,1.1,���쓌,3,�쓌,5.5,70.1,0,0,0,0
2022-12-12T02:55:00+09:00,1,���쓌,2.3,��,5.4,71.1,0,0,0,0
2022-12-12T02:56:00+09:00,1,�쓌,2,���쓌,5.3,72,0,0,0,0
2022-12-12T02:57:00+09:00,1.1,�쓌,2,���쓌,5.3,72.9,0,0,0,0
2022-12-12T02:58:00+09:00,1.2,�쓌,2.3,���쓌,5.2,73.5,0,0,0,0
2022-12-12T02:59:00+09:00,1.3,�쓌,2.5,���쓌,5.3,74.2,0,0,0,0
2022-12-12T03:00:00+09:00,1.4,�쓌,2.5,���쓌,5.5,75.1,0,0,0,0
2022-12-12T03:01:00+09:00,1.5,�쓌,3.1,��,5.6,74.4,0,0,0,0
2022-12-12T03:02:00+09:00,1.7,�쓌,3.2,��,5.5,73.1,0,0,0,0
2022-12-12T03:03:00+09:00,1.8,���쓌,3.2,��,5.5,72.6,0,0,0,0
2022-12-12T03:04:00+09:00,1.8,���쓌,3.2,��,5.7,73.3,0,0,0,0
2022-12-12T03:05:00+09:00,1.8,���쓌,3.2,��,5.6,72,0,0,0,0
2022-12-12T03:06:00+09:00,1.7,���쓌,3.2,��,5.7,71.1,0,0,0,0
2022-12-12T03:07:00+09:00,1.7,���쓌,3.2,��,5.4,70.3,0,0,0,0
2022-12-12T03:08:00+09:00,1.6,���쓌,3.2,��,5.3,70.2,0,0,0,0
2022-12-12T03:09:00+09:00,1.6,���쓌,3.2,��,5.2,71.1,0,0,0,0
2022-12-12T03:10:00+09:00,1.5,���쓌,3.2,��,5.1,71.7,0,0,0,0
2022-12-12T03:11:00+09:00,1.4,���쓌,3.2,��,5.1,72.5,0,0,0,0
2022-12-12T03:12:00+09:00,1.2,���쓌,2.9,��,5.1,73.3,0,0,0,0
2022-12-12T03:13:00+09:00,1.1,���쓌,2.8,��,5.3,74,0,0,0,0
2022-12-12T03:14:00+09:00,1,�쓌,2.2,�쓌,5.4,74.5,0,0,0,0
2022-12-12T03:15:00+09:00,1.1,�쓌,2.2,�쓌,5.4,73.6,0,0,0,0
2022-12-12T03:16:00+09:00,1.1,�쓌,2.2,�쓌,5.3,73.3,0,0,0,0
2022-12-12T03:17:00+09:00,1.1,�쓌,2.2,�쓌,5.3,72.8,0,0,0,0
2022-12-12T03:18:00+09:00,1.1,�쓌,2.2,�쓌,5.1,72.8,0,0,0,0
2022-12-12T03:19:00+09:00,1.1,�쓌,1.8,��쓌,5,72.8,0,0,0,0
2022-12-12T03:20:00+09:00,1.1,�쓌,1.8,��쓌,4.8,73,0,0,0,0
2022-12-12T03:21:00+09:00,1,��쓌,1.8,��쓌,4.9,74,0,0,0,0
2022-12-12T03:22:00+09:00,1.1,��쓌,1.8,��쓌,5.1,75.1,0,0,0,0
2022-12-12T03:23:00+09:00,1.1,��쓌,2.2,��쓌,5.1,74.8,0,0,0,0
2022-12-12T03:24:00+09:00,1.1,��쓌,2.2,��쓌,4.9,73.8,0,0,0,0
2022-12-12T03:25:00+09:00,1.2,��쓌,2.6,��,4.8,73.7,0,0,0,0
2022-12-12T03:26:00+09:00,1.2,��쓌,2.6,��,4.9,75.2,0,0,0,0
2022-12-12T03:27:00+09:00,1.2,��쓌,2.6,��,4.9,75.2,0,0,0,0
2022-12-12T03:28:00+09:00,1.3,��쓌,2.6,��,4.7,75,0,0,0,0
2022-12-12T03:29:00+09:00,1.2,��쓌,2.6,��,4.7,75.2,0,0,0,0
2022-12-12T03:30:00+09:00,1.2,��쓌,2.6,��,4.6,75.9,0,0,0,0
2022-12-12T03:31:00+09:00,1.2,��쓌,2.6,��,4.6,76.3,0,0,0,0
2022-12-12T03:32:00+09:00,1.1,��쓌,2.6,��,4.6,76.6,0,0,0,0
2022-12-12T03:33:00+09:00,1.1,��,2.6,��,4.7,77.2,0,0,0,0
2022-12-12T03:34:00+09:00,1.1,��쓌,2.6,��,4.8,77,0,0,0,0
2022-12-12T03:35:00+09:00,1,��쓌,2.3,��쓌,4.6,76.2,0,0,0,0
2022-12-12T03:36:00+09:00,1.1,��쓌,2.7,�k�k��,4.7,76.2,0,0,0,0
2022-12-12T03:37:00+09:00,1.1,��쓌,2.7,�k�k��,4.9,77.1,0,0,0,0
2022-12-12T03:38:00+09:00,1.1,�쓌,2.7,�k�k��,4.7,75.8,0,0,0,0
2022-12-12T03:39:00+09:00,1,�쓌,2.7,�k�k��,4.6,75,0,0,0,0
2022-12-12T03:40:00+09:00,0.9,�쓌,2.7,�k�k��,4.4,74.8,0,0,0,0
2022-12-12T03:41:00+09:00,1,���쓌,2.7,�k�k��,4.4,75.5,0,0,0,0
2022-12-12T03:42:00+09:00,1,���쓌,2.7,�k�k��,4.6,77,0,0,0,0
2022-12-12T03:43:00+09:00,1,��,2.7,�k�k��,4.7,77.3,0,0,0,0
2022-12-12T03:44:00+09:00,1,��,2.7,�k�k��,4.8,76.3,0,0,0,0
2022-12-12T03:45:00+09:00,1,��,2.7,�k�k��,4.8,75.6,0,0,0,0
2022-12-12T03:46:00+09:00,0.9,��,2.4,���k��,4.7,74.8,0,0,0,0
2022-12-12T03:47:00+09:00,0.8,��,2.4,���k��,4.7,74.6,0,0,0,0
2022-12-12T03:48:00+09:00,0.8,���쓌,2.4,���k��,4.7,74.8,0,0,0,0
2022-12-12T03:49:00+09:00,0.9,���쓌,2.4,���k��,4.5,74.7,0,0,0,0
2022-12-12T03:50:00+09:00,1,���쓌,2.4,���k��,4.4,75,0,0,0,0
2022-12-12T03:51:00+09:00,1,��,2.4,���k��,4.5,75.7,0,0,0,0
2022-12-12T03:52:00+09:00,1.1,���쓌,2.6,���쓌,4.6,76.1,0,0,0,0
2022-12-12T03:53:00+09:00,1.2,���쓌,2.6,���쓌,4.6,75.9,0,0,0,0
2022-12-12T03:54:00+09:00,1.3,���쓌,2.8,���쓌,4.7,75.9,0,0,0,0
2022-12-12T03:55:00+09:00,1.4,���쓌,2.8,���쓌,4.6,75.7,0,0,0,0
2022-12-12T03:56:00+09:00,1.5,���쓌,2.8,���쓌,4.6,74.9,0,0,0,0
2022-12-12T03:57:00+09:00,1.6,���쓌,2.8,���쓌,4.5,74.7,0,0,0,0
2022-12-12T03:58:00+09:00,1.7,���쓌,2.8,���쓌,4.5,74.9,0,0,0,0
2022-12-12T03:59:00+09:00,1.8,���쓌,2.8,���쓌,4.4,75,0,0,0,0
2022-12-12T04:00:00+09:00,1.8,���쓌,2.8,���쓌,4.4,75.1,0,0,0,0
2022-12-12T04:01:00+09:00,1.9,���쓌,3.1,���쓌,4.4,75.3,0,0,0,0
2022-12-12T04:02:00+09:00,2,���쓌,3.1,���쓌,4.4,75.5,0,0,0,0
2022-12-12T04:03:00+09:00,2,���쓌,3.1,���쓌,4.4,75.4,0,0,0,0
2022-12-12T04:04:00+09:00,2,���쓌,3.1,���쓌,4.4,75.3,0,0,0,0
2022-12-12T04:05:00+09:00,2,���쓌,3.1,���쓌,4.5,75.4,0,0,0,0
2022-12-12T04:06:00+09:00,2.1,���쓌,3.2,���쓌,4.4,74.9,0,0,0,0
2022-12-12T04:07:00+09:00,2.1,���쓌,3.2,���쓌,4.5,75.2,0,0,0,0
2022-12-12T04:08:00+09:00,2.1,���쓌,3.2,���쓌,4.5,75.1,0,0,0,0
2022-12-12T04:09:00+09:00,2.2,���쓌,3.2,���쓌,4.6,75.2,0,0,0,0
2022-12-12T04:10:00+09:00,2.2,���쓌,3.2,���쓌,4.6,75,0,0,0,0
2022-12-12T04:11:00+09:00,2.1,���쓌,3.2,���쓌,4.5,74.3,0,0,0,0
2022-12-12T04:12:00+09:00,2.2,���쓌,3.2,���쓌,4.5,74.2,0,0,0,0
2022-12-12T04:13:00+09:00,2.1,���쓌,3.2,���쓌,4.4,73.8,0,0,0,0
2022-12-12T04:14:00+09:00,2.1,���쓌,3.2,���쓌,4.3,73.7,0,0,0,0
2022-12-12T04:15:00+09:00,2.1,��,3.2,���쓌,4.2,74.3,0,0,0,0
2022-12-12T04:16:00+09:00,2,��,3.1,���쓌,4.1,74.9,0,0,0,0
2022-12-12T04:17:00+09:00,1.9,���쓌,3.1,���쓌,4.1,75.2,0,0,0,0
2022-12-12T04:18:00+09:00,1.9,���쓌,3.1,���쓌,4,75.7,0,0,0,0
2022-12-12T04:19:00+09:00,1.8,���쓌,3.1,���쓌,4,76.1,0,0,0,0
2022-12-12T04:20:00+09:00,1.8,���쓌,3.1,���쓌,3.9,76.8,0,0,0,0
2022-12-12T04:21:00+09:00,1.7,���쓌,3.1,���쓌,4,77.3,0,0,0,0
2022-12-12T04:22:00+09:00,1.5,���쓌,3,���쓌,4,77.8,0,0,0,0
2022-12-12T04:23:00+09:00,1.3,���쓌,3,���쓌,4.1,78.1,0,0,0,0
2022-12-12T04:24:00+09:00,1.2,�쓌,2.5,��,4.1,78.3,0,0,0,0
2022-12-12T04:25:00+09:00,1,�쓌,2.2,���쓌,4.1,78.3,0,0,0,0
2022-12-12T04:26:00+09:00,0.9,�쓌,2.1,���쓌,4,77.6,0,0,0,0
2022-12-12T04:27:00+09:00,0.9,�쓌,2.3,���k��,3.9,77.4,0,0,0,0
2022-12-12T04:28:00+09:00,0.9,���쓌,2.3,���k��,3.8,77.7,0,0,0,0
2022-12-12T04:29:00+09:00,0.8,���쓌,2.3,���k��,3.9,78.3,0,0,0,0
2022-12-12T04:30:00+09:00,0.9,���쓌,2.3,���k��,3.9,78.7,0,0,0,0
2022-12-12T04:31:00+09:00,0.9,���쓌,2.3,���k��,3.7,78,0,0,0,0
2022-12-12T04:32:00+09:00,1,��,2.3,���k��,3.6,78,0,0,0,0
2022-12-12T04:33:00+09:00,1.2,��,2.7,��,3.5,78.4,0,0,0,0
2022-12-12T04:34:00+09:00,1.4,��,2.7,��,3.3,78.4,0,0,0,0
2022-12-12T04:35:00+09:00,1.5,��,2.7,��,3.3,79.3,0,0,0,0
2022-12-12T04:36:00+09:00,1.7,��,3.1,���쓌,3.3,80.3,0,0,0,0
2022-12-12T04:37:00+09:00,1.7,��,3.4,���쓌,3.3,80.9,0,0,0,0
2022-12-12T04:38:00+09:00,1.6,��,3.4,���쓌,3.2,81.4,0,0,0,0
2022-12-12T04:39:00+09:00,1.6,��,3.4,���쓌,3.2,81.6,0,0,0,0
2022-12-12T04:40:00+09:00,1.6,��,3.4,���쓌,3.2,82,0,0,0,0
2022-12-12T04:41:00+09:00,1.6,��,3.4,���쓌,3.2,82.2,0,0,0,0
2022-12-12T04:42:00+09:00,1.7,���쓌,3.4,���쓌,3.1,82.3,0,0,0,0
2022-12-12T04:43:00+09:00,1.7,���쓌,3.4,���쓌,3.1,82.7,0,0,0,0
2022-12-12T04:44:00+09:00,1.7,���쓌,3.4,���쓌,3.2,83.3,0,0,0,0
2022-12-12T04:45:00+09:00,1.7,���쓌,3.4,���쓌,3.3,83.6,0,0,0,0
2022-12-12T04:46:00+09:00,1.6,��,3.4,���쓌,3,82.8,0,0,0,0
2022-12-12T04:47:00+09:00,1.6,��,3,�쓌,2.8,82.1,0,0,0,0
2022-12-12T04:48:00+09:00,1.6,��,3.2,���쓌,2.8,82.6,0,0,0,0
2022-12-12T04:49:00+09:00,1.8,��,4.3,�쓌,3,83.9,0,0,0,0
2022-12-12T04:50:00+09:00,1.9,��,4.3,�쓌,3.3,84.5,0,0,0,0
2022-12-12T04:51:00+09:00,1.9,��,4.3,�쓌,3.5,85.5,0,0,0,0
2022-12-12T04:52:00+09:00,1.8,��,4.3,�쓌,3.4,84,0,0,0,0
2022-12-12T04:53:00+09:00,1.7,��,4.3,�쓌,3.3,83.2,0,0,0,0
2022-12-12T04:54:00+09:00,1.7,��,4.3,�쓌,3.3,82.8,0,0,0,0
2022-12-12T04:55:00+09:00,1.8,��,4.3,�쓌,3.5,83.4,0,0,0,0
2022-12-12T04:56:00+09:00,1.8,���쓌,4.3,�쓌,3.4,82.6,0,0,0,0
2022-12-12T04:57:00+09:00,1.8,���쓌,4.3,�쓌,3.7,83,0,0,0,0
2022-12-12T04:58:00+09:00,1.7,���쓌,4.3,�쓌,3.6,82.4,0,0,0,0
2022-12-12T04:59:00+09:00,1.6,���쓌,4.3,��쓌,3.2,80.2,0,0,0,0
2022-12-12T05:00:00+09:00,1.6,���쓌,3.8,���쓌,3.1,79.4,0,0,0,0
2022-12-12T05:01:00+09:00,1.6,��,3.8,���쓌,2.8,79.3,0,0,0,0
2022-12-12T05:02:00+09:00,1.6,��,3.8,���쓌,2.7,79.3,0,0,0,0
2022-12-12T05:03:00+09:00,1.8,��,3.8,���쓌,2.8,80.8,0,0,0,0
2022-12-12T05:04:00+09:00,1.7,��,3.8,���쓌,2.7,81.5,0,0,0,0
2022-12-12T05:05:00+09:00,1.7,��,3.3,�쓌,2.5,80.6,0,0,0,0
2022-12-12T05:06:00+09:00,1.7,��,3.3,�쓌,2.6,81.7,0,0,0,0
2022-12-12T05:07:00+09:00,1.7,��,3.3,�쓌,2.6,82.6,0,0,0,0
2022-12-12T05:08:00+09:00,1.8,��,3.3,�쓌,2.5,82.3,0,0,0,0
2022-12-12T05:09:00+09:00,1.8,��,3.3,�쓌,2.6,83.2,0,0,0,0
2022-12-12T05:10:00+09:00,1.7,��,3.3,�쓌,2.6,83.4,0,0,0,0
2022-12-12T05:11:00+09:00,1.6,��,3.3,�쓌,2.5,83.5,0,0,0,0
2022-12-12T05:12:00+09:00,1.5,���k��,3.3,�쓌,2.4,83.4,0,0,0,0
2022-12-12T05:13:00+09:00,1.3,���k��,2.8,���쓌,2.4,83.6,0,0,0,0
2022-12-12T05:14:00+09:00,1.3,��,2.8,���쓌,2.4,83.9,0,0,0,0
2022-12-12T05:15:00+09:00,1.3,��,2.8,���쓌,2.4,84.5,0,0,0,0
2022-12-12T05:16:00+09:00,1.3,��,2.8,���쓌,2.4,84.7,0,0,0,0
2022-12-12T05:17:00+09:00,1.4,��,2.8,���쓌,2.5,85.3,0,0,0,0
2022-12-12T05:18:00+09:00,1.4,��,2.7,���쓌,2.6,85.7,0,0,0,0
2022-12-12T05:19:00+09:00,1.4,��,2.7,���쓌,2.6,85.8,0,0,0,0
2022-12-12T05:20:00+09:00,1.5,��,2.7,���쓌,2.6,85.7,0,0,0,0
2022-12-12T05:21:00+09:00,1.4,���쓌,2.7,���쓌,2.5,85.6,0,0,0,0
2022-12-12T05:22:00+09:00,1.5,���쓌,2.7,���쓌,2.4,85.2,0,0,0,0
2022-12-12T05:23:00+09:00,1.7,��,2.7,���쓌,2.4,85.1,0,0,0,0
2022-12-12T05:24:00+09:00,1.7,��,2.7,���쓌,2.3,85.4,0,0,0,0
2022-12-12T05:25:00+09:00,1.7,��,2.7,���쓌,2.3,85.5,0,0,0,0
2022-12-12T05:26:00+09:00,1.6,��,2.7,���쓌,2.3,85.6,0,0,0,0
2022-12-12T05:27:00+09:00,1.5,��,2.7,���쓌,2.2,85.7,0,0,0,0
2022-12-12T05:28:00+09:00,1.4,��,2.7,���쓌,2.1,85.7,0,0,0,0
2022-12-12T05:29:00+09:00,1.3,���k��,2.6,�k��,2,85.5,0,0,0,0
2022-12-12T05:30:00+09:00,1.4,���k��,2.6,�k��,2,85.9,0,0,0,0
2022-12-12T05:31:00+09:00,1.6,��,3.4,���쓌,2.1,86.4,0,0,0,0
2022-12-12T05:32:00+09:00,1.8,��,3.9,���쓌,2.1,86.7,0,0,0,0
2022-12-12T05:33:00+09:00,1.8,��,3.9,���쓌,2.1,86.9,0,0,0,0
2022-12-12T05:34:00+09:00,1.8,��,3.9,���쓌,2,86.8,0,0,0,0
2022-12-12T05:35:00+09:00,1.9,��,3.9,���쓌,2,86.7,0,0,0,0
2022-12-12T05:36:00+09:00,2,��,3.9,���쓌,2.1,87.2,0,0,0,0
2022-12-12T05:37:00+09:00,2.1,��,3.9,���쓌,2.2,87.6,0,0,0,0
2022-12-12T05:38:00+09:00,2.3,��,3.9,���쓌,2.3,88.1,0,0,0,0
2022-12-12T05:39:00+09:00,2.3,��,3.9,���쓌,2.3,87.8,0,0,0,0
2022-12-12T05:40:00+09:00,2.4,��,3.9,���쓌,2.2,87.3,0,0,0,0
2022-12-12T05:41:00+09:00,2.3,���k��,3.9,���쓌,2.2,87.1,0,0,0,0
2022-12-12T05:42:00+09:00,2.2,���k��,3.9,���k��,2.1,87.1,0,0,0,0
2022-12-12T05:43:00+09:00,2.3,���k��,3.9,���k��,2.1,87.2,0,0,0,0
2022-12-12T05:44:00+09:00,2.3,���k��,3.9,���k��,2.2,87.6,0,0,0,0
2022-12-12T05:45:00+09:00,2.3,���k��,3.9,���k��,2.2,87.7,0,0,0,0
2022-12-12T05:46:00+09:00,2.2,���k��,3.9,���k��,2.3,88.2,0,0,0,0
2022-12-12T05:47:00+09:00,2.3,��,3.9,���k��,2.4,88.5,0,0,0,0
2022-12-12T05:48:00+09:00,2.2,��,3.9,���k��,2.4,88.4,0,0,0,0
2022-12-12T05:49:00+09:00,2.2,��,3.9,���k��,2.5,88.3,0,0,0,0
2022-12-12T05:50:00+09:00,2.2,��,3.9,���k��,2.5,88.3,0,0,0,0
2022-12-12T05:51:00+09:00,2.2,��,3.9,���k��,2.4,88,0,0,0,0
2022-12-12T05:52:00+09:00,2.2,��,3.8,���k��,2.4,88,0,0,0,0
2022-12-12T05:53:00+09:00,2.1,��,3.7,���k��,2.4,88,0,0,0,0
2022-12-12T05:54:00+09:00,2.1,��,3.5,���k��,2.4,88,0,0,0,0
2022-12-12T05:55:00+09:00,2,��,3.5,���k��,2.5,88.1,0,0,0,0
2022-12-12T05:56:00+09:00,1.9,��,3.5,���k��,2.4,87.8,0,0,0,0
2022-12-12T05:57:00+09:00,1.8,��,3.5,���k��,2.4,87.8,0,0,0,0
2022-12-12T05:58:00+09:00,1.7,��,3.5,���k��,2.3,87.4,0,0,0,0
2022-12-12T05:59:00+09:00,1.5,��,3.5,���k��,2.3,87.8,0,0,0,0
2022-12-12T06:00:00+09:00,,,,,,,,,,
2022-12-12T06:01:00+09:00,1.3,��,3.5,���k��,2.3,88,0,0,0,0
2022-12-12T06:02:00+09:00,1.2,��,3.5,���k��,2.3,88.1,0,0,0,0
2022-12-12T06:03:00+09:00,1.1,��,2.3,���k��,2.2,87.7,0,0,0,0
2022-12-12T06:04:00+09:00,1.1,��,2.5,���쓌,2.2,87.6,0,0,0,0
2022-12-12T06:05:00+09:00,1.3,��,2.9,���쓌,2.1,87.6,0,0,0,0
2022-12-12T06:06:00+09:00,1.4,��,3,��,2.1,87.7,0,0,0,0
2022-12-12T06:07:00+09:00,1.5,��,3,��,2.1,87.9,0,0,0,0
2022-12-12T06:08:00+09:00,1.7,���쓌,3,��,2.1,88.1,0,0,0,0
2022-12-12T06:09:00+09:00,1.8,���쓌,3,��,2.1,88.2,0,0,0,0
2022-12-12T06:10:00+09:00,1.8,��,3,��,2.1,88.3,0,0,0,0
2022-12-12T06:11:00+09:00,1.8,��,3,��,2.1,88.1,0,0,0,0
2022-12-12T06:12:00+09:00,1.9,���쓌,3,��,2.1,88.3,0,0,0,0
2022-12-12T06:13:00+09:00,1.9,��,3,��,2.1,88.3,0,0,0,0
2022-12-12T06:14:00+09:00,1.8,��,3,��,2,88,0,0,0,0
2022-12-12T06:15:00+09:00,1.7,��,3,��,2,88.1,0,0,0,0
2022-12-12T06:16:00+09:00,1.5,��,2.7,���쓌,1.9,88.2,0,0,0,0
2022-12-12T06:17:00+09:00,1.5,��,2.7,���쓌,2,88.5,0,0,0,0
2022-12-12T06:18:00+09:00,1.3,���k��,2.7,���쓌,1.9,88.4,0,0,0,0
2022-12-12T06:19:00+09:00,1.2,���k��,2,���k��,1.8,88.4,0,0,0,0
2022-12-12T06:20:00+09:00,1.1,���k��,2,���k��,1.8,88.3,0,0,0,0
2022-12-12T06:21:00+09:00,1.1,���k��,2,���k��,1.8,88.6,0,0,0,0
2022-12-12T06:22:00+09:00,1,���k��,2,���k��,1.9,89.1,0,0,0,0
2022-12-12T06:23:00+09:00,1,���k��,2.4,��,1.9,89.4,0,0,0,0
2022-12-12T06:24:00+09:00,1,���k��,2.4,��,1.9,89.4,0,0,0,0
2022-12-12T06:25:00+09:00,1.1,���k��,2.4,��,2,89.7,0,0,0,0
2022-12-12T06:26:00+09:00,1.1,���k��,2.4,��,2,89.6,0,0,0,0
2022-12-12T06:27:00+09:00,1.2,���k��,2.4,��,2,89.7,0,0,0,0
2022-12-12T06:28:00+09:00,1.3,���k��,2.9,���쓌,2,89.7,0,0,0,0
2022-12-12T06:29:00+09:00,1.5,��,2.9,���쓌,2,89.8,0,0,0,0
2022-12-12T06:30:00+09:00,1.7,��,3.9,���쓌,2,89.9,0,0,0,0
2022-12-12T06:31:00+09:00,1.8,��,3.9,���쓌,2,89.9,0,0,0,0
2022-12-12T06:32:00+09:00,1.9,��,3.9,���쓌,2,90,0,0,0,0
2022-12-12T06:33:00+09:00,2.1,��,3.9,���쓌,2.1,90,0,0,0,0
2022-12-12T06:34:00+09:00,2.2,��,3.9,���쓌,2,89.8,0,0,0,0
2022-12-12T06:35:00+09:00,2.2,��,3.9,���쓌,2.1,89.9,0,0,0,0
2022-12-12T06:36:00+09:00,2.1,��,3.9,���쓌,2,89.8,0,0,0,0
2022-12-12T06:37:00+09:00,1.9,���쓌,3.9,���쓌,2,89.9,0,0,0,0